YO8RXT-3 Weather Reports


time (UTC)temp
C
wind
direction
speed
KPH
gust
KPH
rain 1hr
cm
rain 24hr
cm
rain mn
cm
humidity
%
barometer
mb
20260902123502 26 310 12.9 0.0 0.00 0.00 0.00 51 1019.0
20260902120503 25 4.8 0.0 0.00 0.00 0.00 51 1019.0
20260902113502 25 60 4.8 0.0 0.00 0.00 0.00
20260902110502 23 3.2 0.0 0.00 0.00 0.00 54 1020.0
20260902103501 23 4.8 0.0 0.00 0.00 0.00 54 1020.0
20260902100503 25 4.8 0.0 0.00 0.00 0.00 54 1020.0
20260902093502 23 250 9.7 0.0 0.00 0.00 0.00 54 1021.0
20260902090501 22 4.8 0.0 0.00 0.00 0.00 61 1021.0
20260902083501 22 260 8.0 0.0 0.00 0.00 0.00 65 1021.0
20260902080502 21 3.2 0.0 0.00 0.00 0.00 69 1021.0
20260902073502 20 310 4.8 0.0 0.00 0.00 0.00 73 1021.0
20260902070502 20 280 9.7 0.0 0.00 0.00 0.00 73 1021.0
20260902063503 18 250 9.7 0.0 0.00 0.00 0.00 78 1021.0
20260902060503 17 250 8.0 0.0 0.00 0.00 0.00 83 1020.0
20260902053502 17 230 9.7 0.0 0.00 0.00 0.00 83 1020.0
20260902050502 16 240 4.8 0.0 0.00 0.00 0.00 88 1020.0
20260902043502 16 230 8.0 0.0 0.00 0.00 0.00 88 1020.0
20260902040502 16 1.6 0.0 0.00 0.00 0.00 88 1020.0
20260902033502 15 280 9.7 0.0 0.00 0.00 0.00 88 1020.0
20260902030502 15 280 8.0 0.0 0.00 0.00 0.00 88 1020.0
20260902023503 13 4.8 0.0 0.00 0.00 0.00 94 1020.0
20260902020501 15 250 4.8 0.0 0.00 0.00 0.00 88 1020.0
20260902013502 16 270 8.0 0.0 0.00 0.00 0.00 88 1019.0
20260902010502 16 3.2 0.0 0.00 0.00 0.00 88 1019.0
20260902003503 16 230 3.2 0.0 0.00 0.00 0.00 88 1019.0
20260902000503 16 230 9.7 0.0 0.00 0.00 0.00 88 1019.0
20260901233502 16 3.2 0.0 0.00 0.00 0.00 88 1019.0
20260901230502 17 3.2 0.0 0.00 0.00 0.00 73 1019.0
20260901223502 17 280 8.0 0.0 0.00 0.00 0.00 78 1019.0
20260901220502 17 260 11.3 0.0 0.00 0.00 0.00 83 1019.0
20260901213502 17 310 8.0 0.0 0.00 0.00 0.00 78 1019.0
20260901210504 17 310 8.0 0.0 0.00 0.00 0.00 78 1019.0
20260901203502 18 300 11.3 0.0 0.00 0.00 0.00 73 1019.0
20260901200502 17 280 11.3 0.0 0.00 0.00 0.00 83 1019.0
20260901193502 18 300 9.7 0.0 0.00 0.00 0.00 78 1019.0
20260901190502 18 270 8.0 0.0 0.00 0.00 0.00 78 1019.0
20260901183502 20 290 4.8 0.0 0.00 0.00 0.00 69 1018.0
20260901180502 21 270 8.0 0.0 0.00 0.00 0.00 69 1018.0
20260901173503 21 300 8.0 0.0 0.00 0.00 0.00 69 1018.0
20260901170502 22 300 8.0 0.0 0.00 0.00 0.00 65 1018.0
20260901163502 22 310 8.0 0.0 0.00 0.00 0.00 65 1017.0
20260901160502 22 300 11.3 0.0 0.00 0.00 0.00 57 1017.0
20260901153503 22 300 12.9 0.0 0.00 0.00 0.00 61 1017.0
20260901150502 23 310 17.7 0.0 0.00 0.00 0.00 54 1017.0
20260901143503 23 310 16.1 0.0 0.00 0.00 0.00 57 1017.0
20260901140502 25 300 17.7 0.0 0.00 0.00 0.00
20260901133502 26 310 20.9 0.0 0.00 0.00 0.00 51 1017.0
20260901130502 23 300 17.7 0.0 0.00 0.00 0.00 54 1017.0